Regional Weather Roundup
Issued by NWS Charleston, SC

Current Version | Previous Version | Graphics & Text | Print | Product List | Glossary On
Versions: 1 2 3 4 5 6 7 8 9 10 11 12 13 14 15 16 17 18 19 20 21 22 23 24 25 26 27 28 29 30 31 32 33 34 35 36 37 38 39 40 41 42 43 44 45 46 47 48 49 50
000 ASUS42 KCHS 261313 RWRCHS REGIONAL WEATHER ROUNDUP NATIONAL WEATHER SERVICE CHARLESTON SC 900 AM EDT TUE JUL 26 2016 NOTE: "FAIR" INDICATES FEW OR NO CLOUDS BELOW 12,000 FEET WITH NO SIGNIFICANT WEATHER AND/OR OBSTRUCTIONS TO VISIBILITY. NOT ALL STATIONS ARE QUALITY CONTROLLED. USE DATA WITH CAUTION... ESPECIALLY DEWPOINT OBSERVATIONS. SCZ027-030-031-034>040-042>050-261400- ...SOUTHEAST SOUTH CAROLINA... CITY SKY/WX TMP DP RH WIND PRES REMARKS N CHARLESTON MOSUNNY 83 74 74 W9 30.07R WATERFRONT PRK N/A 83 76 79 SW6 30.03S HX 91 MOUNT PLEASANT FAIR 84 75 74 W5 30.07R HX 92 JOHNS ISLAND FAIR 84 77 79 W5 30.07R HX 94 PINOPOLIS N/A 81 75 83 SW8 29.99R MONCKS CORNER FAIR 79 72 78 W5 30.06S SUMMERVILLE FAIR 81 77 89 SW5 30.07S BEAUFORT MCAS SUNNY 85 73 67 W10 30.07R HX 91 BEAUFORT ARPT FAIR 82 73 74 SW7 30.07R HILTON HEAD IS SUNNY 82 72 69 SW6 30.08R WALTERBORO SUNNY 82 75 78 W6 30.08R ALLENDALE PTSUNNY 81 73 78 SW6 30.06R ...SOUTHERN MIDLANDS AND PEE DEE... CITY SKY/WX TMP DP RH WIND PRES REMARKS GEORGETOWN FAIR 81 73 78 SW10 30.07S KINGSTREE FAIR 81 72 74 SW5 30.06R ORANGEBURG SUNNY 80 73 79 SW7 30.06R BARNWELL NOT AVBL AIKEN FAIR 79 70 73 SW7 30.10R MANNING FAIR 81 72 74 SW5 30.06R COLUMBIA MOSUNNY 83 71 67 SW7 30.04R SUMTER NOT AVBL FLORENCE SUNNY 81 73 76 SW9 30.05S MYRTLE BEACH SUNNY 82 70 65 SW8 30.07S N MYRTLE BEACH SUNNY 83 74 74 W8 30.06R $$ GAZ063-065-086>088-099>101-113>116-118-119-134>141-150-261400- ...SOUTHEAST GEORGIA... CITY SKY/WX TMP DP RH WIND PRES REMARKS SAVANNAH ARPT MOSUNNY 82 73 74 W7 30.08R HUNTER AAF NOT AVBL FORT STEWART NOT AVBL STATESBORO SUNNY 83 76 79 W5 30.08S HX 90 SYLVANIA NOT AVBL CLAXTON FAIR 82 76 80 SW3 30.08S ...CSRA...CENTRAL AND FAR SOUTHEAST GEORGIA... CITY SKY/WX TMP DP RH WIND PRES REMARKS THOMSON NOT AVBL AUGUSTA-BUSH MOSUNNY 82 71 69 SW6 30.05R AUGUSTA-DANIEL SUNNY 83 71 67 VRB3 30.08R SWAINSBORO FAIR 81 72 74 W5 30.09S VIDALIA SUNNY 81 73 78 W5 30.09R EASTMAN FAIR 82 69 66 CALM 30.11R HAZLEHURST FAIR 84 77 81 CALM 30.08R HX 93 ALMA SUNNY 81 74 79 SW6 30.08R WAYCROSS SUNNY 85 78 79 SW5 30.09R HX 95 JESUP FAIR 82 79 89 CALM 30.08S HX 93 BAXLEY FAIR 81 79 94 CALM 30.08R BRUNSWICK SUNNY 84 77 79 CALM 30.09R HX 94 SAINT SIMONS SUNNY 83 73 72 SW5 30.07S $$ SCZ027-028-034-036>038-045-046-048>050-GAZ119-141-261400- ...LAKE AND SUPPLEMENTAL COASTAL OBSERVATIONS... STATION/POSITION TIME TEMP WIND PRES WAVE SWELL AIR SEA DIR/SP/G HT/PER HT/PER/DIR (UTC) (F) (DEG/KT/KT) (MB) (FT/S) (FT/S/D) WINYAH BAY NOT AVBL LAKE MURRAY NOT AVBL ACE BASIN NERRS NOT AVBL FORT PULASKI 1200 81 87 260/ 4/ 7 1018.6R SAPELO ISLAND 1200 81 CALM 1018.0S $$ ANZ835-935-AMZ111-154-330-350-352-354-370-450-454-472-261400- ...C-MAN AND BUOY OBSERVATIONS... STATION/POSITION TIME TEMP WIND PRES WAVE SWELL AIR SEA DIR/SP/G HT/PER HT/PER/DIR (UTC) (F) (DEG/KT/KT) (MB) (FT/S) (FT/S/D) BUOY 41004 1250 85 85 240/ 10/ 12 1017.5F 2/ 4 2/140/ 8 BUOY 41008 1250 83 86 250/ 6/ 8 1018.5R 2/ 5 2/160/ 5 FOLLY BEACH CMAN 1200 82 240/ 5/ 7 1017.9S CAPERS NEARSHORE 1208 83 82 250/ 10/ 14 1017.7R FRIPP NEARSHORE 1208 83 87 250/ 10/ 14 1017.5R STATION/POSITION TIME TEMP WIND PRES WAVE SWELL AIR SEA DIR/SP/G HT/PER HT/PER/DIR (UTC) (F) (DEG/KT/KT) (MB) (FT/S) (FT/S/D) 5E ST. MARYS GA 1201 85 N/A 2/ 5 FRYING PAN BUOY 1200 84 85 250/ 14/ 16 1017.6R BUOY 41025 1250 83 84 250/ 17/ 21 1016.6R 4/ 5 CAPE LOOKOUT NC 1200 83 250/ 14/ 19 1017.0R BUOY 41002 1250 84 84 210/ 12/ 14 1019.2R 2/ 8 2/ 80/ 8 BUOY 41010 1220 85 86 230/ 2/ 4 1019.5R ST AUGUSTINE FL 1300 82 84 200/ 3/ 4 1019.8R $$

USA.gov is the U.S. government's official web portal to all federal, state and local government web resources and services.